METEOR 2-10

导读

METEOR 2-10(流星2-10)是独联体(CIS)继承自苏联的第二代极轨气象卫星,于1983年10月28日发射入轨。作为苏联Meteor-2系列气象卫星成员,运行在近81.2°倾角的低地球轨道,配备可见光/红外相机、扫描辐射计等载荷,可获取云层、大气辐射等气象数据,支撑全球天气预报、气候研究与灾害监测,是冷战时期苏联气象观测网络的重要组成部分。

Basic Information
目录编号:
14452
目录名称:
METEOR 2-10
国际标识:
1983-109A
轨道中心:
EARTH
卫星名称:
METEOR 2-10
卫星全名:
--
卫星状态:
在轨 (已飞行15660 天)
发射日期:
1983-10-28 UTC
国别 :
俄罗斯(独联体) (CIS)
星等 :
--
This satellite is enrolled in the Space Conjunction Data Service (SCDS) and the current flight risk assessment level is: No High Risk
Orbit Information
数据来源 国际轨道数据 AOE轨道数据
星历时间 2026-09-11T20:27:28+0800
15小时前
查看轨道信息
2026-09-10T23:00:00+0800
1天前
查看轨道信息
半长轴 7178.928km 7178.929km
偏心率 0.0089133 0.0089251
轨道倾角 81.158° 81.158°
近地点辐角 312.396° 315.033°
升交点赤经 269.743° 270.648°
平近点角 46.970° 132.944°
近地点 736.803km 736.719km
远地点 864.779km 864.865km
周期 100.890分钟 100.890分钟
每日圈数 14.272938 14.272935
Detailed Information
使用方式:
暂无
2D Orbit Map
3D Orbit Map
Orbit Altitude Analysis Chart
Orbit Inclination Analysis Chart
Orbit Comprehensive Analysis Chart
View Comprehensive Chart
Miss Distance Evolution Trend with All Objects
Collision Probability Evolution Trend with All Objects